Regional Weather Roundup
Issued by NWS Charleston, WV

Home | Current Version | Previous Version | Graphics & Text | Print | Product List | Glossary On
Versions: 1 2 3 4 5 6 7 8 9 10 11 12 13 14 15 16 17 18 19 20 21 22 23 24 25 26 27 28 29 30 31 32 33 34 35 36 37 38 39 40 41 42 43 44 45 46 47 48 49 50
000
ASUS41 KRLX 242210
RWRRLX
West Virginia Regional Weather Roundup
National Weather Service Charleston WV
600 PM EDT WED AUG 24 2016

Note: "fair" indicates few or no clouds below 12,000 feet with no
significant weather and/or obstructions to visibility.

WVZ003-242300-
Northern Panhandle of West Virginia

CITY           SKY/WX    TMP DP  RH WIND       PRES   REMARKS
WHEELING       MOSUNNY   84  65  52 SW10      30.14S
$$

WVZ009-242300-
Northwest West Virginia

CITY           SKY/WX    TMP DP  RH WIND       PRES   REMARKS
PARKERSBURG    MOSUNNY   86  67  52 SW7       30.17R
$$

WVZ006-242300-
Western West Virginia

CITY           SKY/WX    TMP DP  RH WIND       PRES   REMARKS
HUNTINGTON     CLOUDY    85  69  58 S5        30.14S
$$

WVZ015-242300-
West Central West Virginia

CITY           SKY/WX    TMP DP  RH WIND       PRES   REMARKS
CHARLESTON     PTSUNNY   84  68  58 S8        30.17R
$$

WVZ022-031-242300-
North Central West Virginia

CITY           SKY/WX    TMP DP  RH WIND       PRES   REMARKS
CLARKSBURG     SUNNY     83  63  50 SW9       30.16S
MORGANTOWN     MOSUNNY   84  62  47 SW6       30.16F
$$

WVZ025-035-042-045-242300-
Southern West Virginia

CITY           SKY/WX    TMP DP  RH WIND       PRES   REMARKS
BECKLEY        MOSUNNY   79  64  60 SW6       30.27S
LOGAN            N/A     82  72  69 CALM      30.19S
BLUEFIELD      MOSUNNY   74  64  71 CALM      30.29F
LEWISBURG      SUNNY     77  64  64 SW6       30.26S
$$

WVZ047-242300-
Northern Mountains of West Virginia

CITY           SKY/WX    TMP DP  RH WIND       PRES   REMARKS
ELKINS         MOSUNNY   83  61  47 W6        30.21S
$$

WVZ052-242300-
Eastern Panhandle of West Virginia

CITY           SKY/WX    TMP DP  RH WIND       PRES   REMARKS
MARTINSBURG    MOSUNNY   83  65  54 S9        30.16S
PETERSBURG     SUNNY     89  64  42 S8        30.13F
$$




USA.gov is the U.S. government's official web portal to all federal, state and local government web resources and services.